Powrót do katalogu

TITAN 3C TRANSTAGE DEB

LostHEO
NORAD 26529·DEBRIS·🇺🇸 United States

Wystrzelony Dec 21, 1965 z Cape Canaveral Space Force Station

Loading…

Następne Przeloty (najbliższe 24 godziny)

TLE

NieaktualneSource: Space-Track

Epoka: Sep 9, 2025, 04:35 UTC

1 26529U 65108AQ  25252.19136875 -.00000222  00000-0 -20416-2 0  9993
2 26529  26.3984 153.9304 6814718 223.0250 342.1889  2.65515012 34359

Śledź TITAN 3C TRANSTAGE DEB w czasie rzeczywistym z AllMySat

Download on the App Store